Location: Newark
(39.6867°N, 100.6772°W)
Time: 12:11:11
(UTC+00:00)

Vanguard 1 - Pass Details

Date: 20 October 2019
Orbit: 652 x 3831 km, 34.2° (Epoch: 13 November)

Event Time Altitude Azimuth Distance (km) Brightness Sun altitude
Rises 07:33:34 0° 281° (W) 6,069 - -57.1°
Reaches altitude 10° 07:37:20 10° 274° (W) 5,433 - -56.8°
Maximum altitude 07:53:10 41° 212° (SSW) 4,502 - -55.0°
Exits shadow 08:10:00 17° 158° (SSE) 6,322 13.9 -52.8°
Drops below altitude 10° 08:13:44 10° 152° (SSE) 6,878 14.2 -52.3°
Sets 08:19:27 0° 146° (SE) 7,756 14.6 -51.5°
